K4DFD-13 Weather Reports


time (UTC)temp
C
wind
direction
speed
KPH
gust
KPH
rain 1hr
cm
rain 24hr
cm
rain mn
cm
humidity
%
barometer
mb
20260510162016 22 320 4.8 6.4 0.00 0.00 0.00 49 1017.0
20260510161516 22 307 8.0 14.5 0.00 0.00 0.00 48 1017.2
20260510161015 22 325 4.8 12.9 0.00 0.00 0.00 49 1016.9
20260510160515 22 0 4.8 9.7 0.00 0.00 0.00 50 1016.9
20260510160015 22 21 3.2 8.0 0.00 0.00 0.00 51 1016.9
20260510155514 22 268 9.7 16.1 0.00 0.00 0.00 48 1016.9
20260510155034 22 282 6.4 14.5 0.00 0.00 0.00 49 1016.9
20260510154514 22 294 8.0 11.3 0.00 0.00 0.00 49 1016.9
20260510154013 22 267 8.0 16.1 0.00 0.00 0.00 50 1016.9
20260510153533 22 254 6.4 14.5 0.00 0.00 0.00 50 1017.0
20260510153012 22 306 6.4 9.7 0.00 0.00 0.00 51 1017.1
20260510152512 22 310 3.2 11.3 0.00 0.00 0.00 52 1017.0
20260510152011 22 17 4.8 8.0 0.00 0.00 0.00 52 1017.0
20260510151511 22 324 6.4 9.7 0.00 0.00 0.00 52 1017.1
20260510151010 21 259 4.8 14.5 0.00 0.00 0.00 53 1017.0
20260510150510 22 287 8.0 14.5 0.00 0.00 0.00 51 1017.0
20260510150010 21 311 3.2 11.3 0.00 0.00 0.00 53 1016.9
20260510145509 21 326 6.4 12.9 0.00 0.00 0.00 52 1017.1
20260510145009 21 301 6.4 12.9 0.00 0.00 0.00 52 1017.0
20260510144509 21 230 8.0 12.9 0.00 0.00 0.00 53 1017.0
20260510144008 21 240 4.8 8.0 0.00 0.00 0.00 55 1016.9
20260510143508 20 290 4.8 8.0 0.00 0.00 0.00 55 1017.0
20260510143007 20 284 6.4 11.3 0.00 0.00 0.00 55 1016.9
20260510142507 20 318 6.4 9.7 0.00 0.00 0.00 58 1017.0
20260510142007 20 246 3.2 8.0 0.00 0.00 0.00 57 1017.0
20260510141506 20 262 6.4 8.0 0.00 0.00 0.00 58 1017.1
20260510141006 20 277 6.4 8.0 0.00 0.00 0.00 58 1017.0
20260510140505 20 234 6.4 14.5 0.00 0.00 0.00 58 1017.0
20260510140005 20 270 4.8 8.0 0.00 0.00 0.00 58 1017.0
20260510135504 20 236 4.8 8.0 0.00 0.00 0.00 58 1017.0
20260510135004 19 240 3.2 6.4 0.00 0.00 0.00 58 1016.9
20260510134504 19 262 6.4 8.0 0.00 0.00 0.00 59 1017.0
20260510134003 19 298 3.2 4.8 0.00 0.00 0.00 59 1017.0
20260510133503 19 281 6.4 11.3 0.00 0.00 0.00 58 1017.2
20260510133003 19 243 6.4 11.3 0.00 0.00 0.00 60 1017.0
20260510132502 18 230 3.2 8.0 0.00 0.00 0.00 62 1016.9
20260510132002 18 270 4.8 9.7 0.00 0.00 0.00 63 1016.8
20260510131506 18 247 4.8 8.0 0.00 0.00 0.00 66 1016.7
20260510131001 17 278 4.8 8.0 0.00 0.00 0.00 67 1016.7
20260510130521 17 270 6.4 9.7 0.00 0.00 0.00 70 1016.7
20260510130020 16 247 4.8 9.7 0.00 0.00 0.00 71 1016.8
20260510125500 16 226 3.2 4.8 0.00 0.00 0.00 74 1016.7
20260510125019 15 247 6.4 11.3 0.00 0.00 0.00 75 1016.8
20260510124459 15 274 6.4 8.0 0.00 0.00 0.00 76 1016.8
20260510123959 15 272 4.8 8.0 0.00 0.00 0.00 76 1016.8
20260510123458 15 260 3.2 6.4 0.00 0.00 0.00 77 1016.8
20260510122958 15 239 3.2 6.4 0.00 0.00 0.00 79 1016.7
20260510122457 14 232 1.6 4.8 0.00 0.00 0.00 79 1016.6
20260510121957 14 242 3.2 4.8 0.00 0.00 0.00 80 1016.6
20260510121457 13 206 4.8 8.0 0.00 0.00 0.00 81 1016.5
20260510120956 13 239 3.2 4.8 0.00 0.00 0.00 83 1016.5
20260510120456 13 224 4.8 6.4 0.00 0.00 0.00 84 1016.5
20260510115956 12 229 6.4 8.0 0.00 0.00 0.00 85 1016.5
20260510115455 12 208 6.4 8.0 0.00 0.00 0.00 87 1016.4
20260510115002 12 228 3.2 4.8 0.00 0.00 0.00 88 1016.5
20260510114455 11 242 3.2 4.8 0.00 0.00 0.00 90 1016.6
20260510113954 11 205 1.6 4.8 0.00 0.00 0.00 91 1016.5
20260510113454 10 233 3.2 6.4 0.00 0.00 0.00 93 1016.5
20260510112953 10 218 3.2 4.8 0.00 0.00 0.00 94 1016.4
20260510112453 10 194 1.6 3.2 0.00 0.00 0.00 95 1016.3
20260510111953 10 193 3.2 3.2 0.00 0.00 0.00 96 1016.3
20260510111453 9 223 3.2 4.8 0.00 0.00 0.00 97 1016.3
20260510110952 9 197 3.2 3.2 0.00 0.00 0.00 97 1016.2
20260510110459 9 228 1.6 3.2 0.00 0.00 0.00 98 1016.2
20260510105951 9 230 3.2 3.2 0.00 0.00 0.00 98 1016.1
20260510105451 8 215 3.2 3.2 0.00 0.00 0.00 99 1015.8
20260510104950 8 214 4.8 4.8 0.00 0.00 0.00 99 1015.7
20260510104450 8 291 1.6 3.2 0.00 0.00 0.00 99 1015.7
20260510103950 8 245 1.6 3.2 0.00 0.00 0.00 99 1015.6
20260510103449 8 277 1.6 3.2 0.00 0.00 0.00 99 1015.5
20260510103006 8 221 1.6 1.6 0.00 0.00 0.00 99 1015.4
20260510102449 8 250 1.6 3.2 0.00 0.00 0.00 99 1015.5
20260510101948 8 306 1.6 1.6 0.00 0.00 0.00 99 1015.4
20260510101448 8 283 1.6 1.6 0.00 0.00 0.00 99 1015.4
20260510100948 7 300 1.6 3.2 0.00 0.00 0.00 99 1015.4
20260510100447 7 321 1.6 1.6 0.00 0.00 0.00 99 1015.4
20260510095947 7 259 1.6 3.2 0.00 0.00 0.00 99 1015.3
20260510095447 7 275 1.6 3.2 0.00 0.00 0.00 99 1015.3
20260510094956 6 275 1.6 1.6 0.00 0.00 0.00 99 1015.4
20260510094446 6 333 0.0 0.0 0.00 0.00 0.00 99 1015.3
20260510093945 6 287 3.2 3.2 0.00 0.00 0.00 99 1015.2
20260510093445 6 222 0.0 1.6 0.00 0.00 0.00 99 1015.3
20260510092945 6 0 0.0 0.0 0.00 0.00 0.00 99 1015.3
20260510092444 6 236 0.0 1.6 0.00 0.00 0.00 99 1015.3
20260510091944 7 0 0.0 0.0 0.00 0.00 0.00 99 1015.2
20260510091447 7 0 0.0 0.0 0.00 0.00 0.00 99 1015.1
20260510090943 7 278 0.0 1.6 0.00 0.00 0.00 99 1015.1
20260510090503 7 245 3.2 3.2 0.00 0.00 0.00 99 1015.0
20260510085942 7 206 1.6 3.2 0.00 0.00 0.00 99 1014.9
20260510085442 7 289 1.6 3.2 0.00 0.00 0.00 99 1014.9
20260510084941 7 299 0.0 3.2 0.00 0.00 0.00 99 1014.9
20260510084441 7 26 1.6 3.2 0.00 0.00 0.00 99 1014.8
20260510083941 7 248 0.0 3.2 0.00 0.00 0.00 99 1014.9
20260510083500 7 203 1.6 1.6 0.00 0.00 0.00 99 1014.8
20260510082941 7 321 0.0 0.0 0.00 0.00 0.00 99 1014.7
20260510082459 7 216 0.0 0.0 0.00 0.00 0.00 99 1014.8
20260510081939 7 0 0.0 0.0 0.00 0.00 0.00 99 1014.7
20260510081439 7 339 0.0 0.0 0.00 0.00 0.00 99 1014.7
20260510080938 7 337 0.0 1.6 0.00 0.00 0.00 99 1014.6
20260510080438 7 0 0.0 0.0 0.00 0.00 0.00 99 1014.7
20260510075937 7 0 0.0 0.0 0.00 0.00 0.00 99 1014.7
20260510075437 7 217 0.0 0.0 0.00 0.00 0.00 99 1014.7
20260510074937 7 251 0.0 0.0 0.00 0.00 0.00 100 1014.6
20260510074436 8 282 0.0 0.0 0.00 0.00 0.00 100 1014.6
20260510073936 8 13 0.0 1.6 0.00 0.00 0.00 99 1014.5
20260510073436 8 322 0.0 1.6 0.00 0.00 0.00 99 1014.5
20260510072935 7 2 0.0 1.6 0.00 0.00 0.00 99 1014.4
20260510072435 7 339 0.0 1.6 0.00 0.00 0.00 98 1014.4
20260510071934 7 321 0.0 0.0 0.00 0.00 0.00 97 1014.5
20260510071434 8 0 0.0 0.0 0.00 0.00 0.00 96 1014.5
20260510070934 8 0 0.0 0.0 0.00 0.00 0.00 95 1014.4
20260510070433 8 2 0.0 1.6 0.00 0.00 0.00 95 1014.3
20260510065933 9 104 0.0 0.0 0.00 0.00 0.00 95 1014.3
20260510065433 9 0 0.0 0.0 0.00 0.00 0.00 94 1014.3
20260510064932 9 315 0.0 1.6 0.00 0.00 0.00 93 1014.1
20260510064432 9 311 0.0 1.6 0.00 0.00 0.00 94 1014.3
20260510063932 9 324 1.6 3.2 0.00 0.00 0.00 92 1014.3
20260510063431 9 260 0.0 3.2 0.00 0.00 0.00 93 1014.1
20260510062931 8 271 1.6 3.2 0.00 0.00 0.00 96 1014.1
20260510062431 8 0 0.0 0.0 0.00 0.00 0.00 96 1014.3
20260510061930 8 0 0.0 0.0 0.00 0.00 0.00 96 1014.4
20260510061430 8 0 0.0 0.0 0.00 0.00 0.00 94 1014.4
20260510060930 9 0 0.0 0.0 0.00 0.00 0.00 92 1014.5
20260510060429 9 0 0.0 0.0 0.00 0.00 0.00 92 1014.5
20260510055929 9 0 0.0 0.0 0.00 0.00 0.00 91 1014.5
20260510055429 9 315 1.6 1.6 0.00 0.00 0.00 90 1014.4
20260510054928 10 280 1.6 1.6 0.00 0.00 0.00 90 1014.4
20260510054428 9 196 3.2 4.8 0.00 0.00 0.00 91 1014.3
20260510053928 9 184 1.6 3.2 0.00 0.00 0.00 92 1014.4
20260510053427 9 0 0.0 0.0 0.00 0.00 0.00 91 1014.5
20260510052927 10 0 0.0 0.0 0.00 0.00 0.00 90 1014.5
20260510052447 10 19 0.0 1.6 0.00 0.00 0.00 90 1014.4
20260510051926 10 0 0.0 0.0 0.00 0.00 0.00 88 1014.4
20260510051426 10 345 0.0 0.0 0.00 0.00 0.00 87 1014.5
20260510050926 11 271 0.0 0.0 0.00 0.00 0.00 85 1014.5
20260510050425 11 0 0.0 0.0 0.00 0.00 0.00 85 1014.4
20260510045925 11 272 0.0 3.2 0.00 0.00 0.00 85 1014.4
20260510045424 11 293 1.6 3.2 0.00 0.00 0.00 86 1014.5
20260510044924 11 222 3.2 3.2 0.00 0.00 0.00 85 1014.4
20260510044424 11 218 1.6 3.2 0.00 0.00 0.00 85 1014.4
20260510043923 11 214 1.6 1.6 0.00 0.00 0.00 84 1014.4
20260510043423 11 278 1.6 3.2 0.00 0.00 0.00 84 1014.4
20260510042923 11 245 1.6 3.2 0.00 0.00 0.00 85 1014.4
20260510042423 11 225 0.0 3.2 0.00 0.00 0.00 85 1014.5
20260510041922 11 0 0.0 0.0 0.00 0.00 0.00 84 1014.5
20260510041422 11 0 0.0 0.0 0.00 0.00 0.00 83 1014.5
20260510040921 11 0 0.0 0.0 0.00 0.00 0.00 83 1014.5
20260510040421 11 285 1.6 1.6 0.00 0.00 0.00 83 1014.5
20260510035920 11 234 0.0 0.0 0.00 0.00 0.00 82 1014.5
20260510035420 12 309 0.0 1.6 0.00 0.00 0.00 80 1014.4
20260510034920 12 211 1.6 3.2 0.00 0.00 0.00 80 1014.3
20260510034419 12 204 0.0 1.6 0.00 0.00 0.00 81 1014.4
20260510033919 12 314 0.0 1.6 0.00 0.00 0.00 80 1014.4
20260510033419 12 241 0.0 1.6 0.00 0.00 0.00 78 1014.4
20260510032919 13 214 1.6 3.2 0.00 0.00 0.00 77 1014.3
20260510032418 14 200 3.2 4.8 0.00 0.00 0.00 75 1014.3
20260510031918 15 210 3.2 4.8 0.00 0.00 0.00 67 1013.9
20260510031423 14 304 3.2 4.8 0.00 0.00 0.00 67 1013.8
20260510030917 13 305 3.2 3.2 0.00 0.00 0.00 73 1014.0
20260510030424 13 305 3.2 3.2 0.00 0.00 0.00 75 1014.0
20260510025916 13 273 1.6 3.2 0.00 0.00 0.00 75 1014.0
20260510025416 13 206 3.2 4.8 0.00 0.00 0.00 72 1013.9
20260510024916 13 213 3.2 3.2 0.00 0.00 0.00 72 1013.9
20260510024415 13 308 1.6 3.2 0.00 0.00 0.00 72 1013.8
20260510023915 14 252 3.2 6.4 0.00 0.00 0.00 72 1013.9
20260510023415 15 202 6.4 8.0 0.00 0.00 0.00 69 1013.8
20260510022914 15 256 3.2 6.4 0.00 0.00 0.00 65 1013.7
20260510022414 15 289 3.2 3.2 0.00 0.00 0.00 65 1013.6
20260510021914 13 274 1.6 4.8 0.00 0.00 0.00 69 1013.7
20260510021413 13 285 1.6 3.2 0.00 0.00 0.00 72 1013.7
20260510020913 13 297 0.0 1.6 0.00 0.00 0.00 73 1013.8
20260510020412 13 301 0.0 1.6 0.00 0.00 0.00 72 1013.7
20260510015912 13 221 0.0 1.6 0.00 0.00 0.00 72 1013.6
20260510015413 14 193 0.0 3.2 0.00 0.00 0.00 71 1013.5
20260510014921 14 182 1.6 3.2 0.00 0.00 0.00 69 1013.5
20260510014411 15 205 1.6 3.2 0.00 0.00 0.00 69 1013.5
20260510013910 15 235 0.0 0.0 0.00 0.00 0.00 67 1013.3
20260510013410 15 194 0.0 3.2 0.00 0.00 0.00 66 1013.2
20260510012909 16 221 0.0 0.0 0.00 0.00 0.00 64 1013.1
20260510012409 16 250 1.6 3.2 0.00 0.00 0.00 63 1013.0
20260510011908 16 240 1.6 3.2 0.00 0.00 0.00 61 1012.8
20260510011428 16 250 1.6 3.2 0.00 0.00 0.00 60 1012.7
20260510010908 17 294 1.6 3.2 0.00 0.00 0.00 59 1012.5
20260510010407 17 314 3.2 3.2 0.00 0.00 0.00 58 1012.4
20260510005907 17 298 3.2 4.8 0.00 0.00 0.00 58 1012.4
20260510005407 17 281 0.0 1.6 0.00 0.00 0.00 58 1012.4
20260510004911 17 300 1.6 3.2 0.00 0.00 0.00 56 1012.3
20260510004406 17 305 1.6 4.8 0.00 0.00 0.00 56 1012.3
20260510003905 17 275 3.2 4.8 0.00 0.00 0.00 55 1012.3
20260510003405 18 242 1.6 4.8 0.00 0.00 0.00 54 1012.3
20260510002905 18 270 1.6 3.2 0.00 0.00 0.00 54 1012.2
20260510002404 18 322 3.2 4.8 0.00 0.00 0.00 53 1012.1
20260510001904 18 288 4.8 6.4 0.00 0.00 0.00 52 1012.2
20260510001404 18 316 4.8 8.0 0.00 0.00 0.00 52 1012.2
20260510000903 18 286 4.8 6.4 0.00 0.00 0.00 52 1012.2
20260510000403 18 286 4.8 8.0 0.00 0.00 0.00 51 1012.1
20260509235902 19 236 3.2 4.8 0.00 0.00 0.00 52 1012.1
20260509235406 19 286 1.6 3.2 0.00 0.00 0.00 52 1012.0
20260509234900 19 257 3.2 4.8 0.00 0.00 0.00 53 1011.9
20260509234400 20 264 3.2 6.4 0.00 0.00 0.00 52 1011.9
20260509233900 20 271 3.2 4.8 0.00 0.00 0.00 51 1011.8
20260509233359 20 268 3.2 6.4 0.00 0.00 0.00 51 1011.8
20260509232859 20 298 6.4 9.7 0.00 0.00 0.00 50 1011.6
20260509232358 21 280 6.4 9.7 0.00 0.00 0.00 49 1011.6
20260509231858 21 291 3.2 8.0 0.00 0.00 0.00 49 1011.5
20260509231358 21 21 1.6 4.8 0.00 0.00 0.00 50 1011.5
20260509230857 21 245 3.2 8.0 0.00 0.00 0.00 50 1011.5
20260509230357 21 280 3.2 4.8 0.00 0.00 0.00 49 1011.5
20260509225857 21 329 1.6 4.8 0.00 0.00 0.00 49 1011.5
20260509225417 21 293 8.0 12.9 0.00 0.00 0.00 48 1011.3
20260509224856 21 277 8.0 14.5 0.00 0.00 0.00 48 1011.3
20260509224356 21 320 4.8 8.0 0.00 0.00 0.00 49 1011.3
20260509223857 21 307 6.4 14.5 0.00 0.00 0.00 48 1011.3
20260509223355 22 296 8.0 14.5 0.00 0.00 0.00 47 1011.3
20260509222855 21 280 3.2 6.4 0.00 0.00 0.00 48 1011.3
20260509222355 22 280 6.4 12.9 0.00 0.00 0.00 48 1011.3
20260509221854 22 262 4.8 8.0 0.00 0.00 0.00 47 1011.4
20260509221354 21 257 9.7 14.5 0.00 0.00 0.00 47 1011.3
20260509220853 21 285 4.8 6.4 0.00 0.00 0.00 47 1011.3
20260509220353 21 266 4.8 9.7 0.00 0.00 0.00 49 1011.3
20260509215853 21 313 6.4 11.3 0.00 0.00 0.00 49 1011.4
20260509215352 21 303 8.0 16.1 0.00 0.00 0.00 48 1011.5
20260509214852 21 302 6.4 11.3 0.00 0.00 0.00 48 1011.5
20260509214412 22 284 8.0 16.1 0.00 0.00 0.00 47 1011.2
20260509213851 22 287 8.0 14.5 0.00 0.00 0.00 46 1011.2
20260509213351 22 245 4.8 8.0 0.00 0.00 0.00 46 1011.1
20260509212851 22 282 4.8 9.7 0.00 0.00 0.00 47 1011.1
20260509212350 22 246 9.7 14.5 0.00 0.00 0.00 46 1011.0
20260509211850 22 292 9.7 14.5 0.00 0.00 0.00 46 1010.8
20260509211350 21 299 3.2 6.4 0.00 0.00 0.00 49 1010.8
20260509210849 21 301 3.2 6.4 0.00 0.00 0.00 49 1010.7
20260509210349 21 311 6.4 11.3 0.00 0.00 0.00 49 1011.1
20260509205848 21 302 6.4 12.9 0.00 0.00 0.00 47 1011.2
20260509205348 22 270 9.7 14.5 0.00 0.00 0.00 46 1010.8
20260509204848 21 276 6.4 14.5 0.00 0.00 0.00 48 1010.7
20260509204348 21 237 8.0 16.1 0.00 0.00 0.00 48 1010.8
20260509203847 21 255 9.7 14.5 0.00 0.00 0.00 48 1010.7
20260509203347 21 281 6.4 11.3 0.00 0.00 0.00 48 1011.2
20260509202847 21 299 9.7 14.5 0.00 0.00 0.00 47 1010.7
20260509202346 21 283 4.8 9.7 0.00 0.00 0.00 48 1010.8
20260509201846 21 264 6.4 8.0 0.00 0.00 0.00 49 1010.6
20260509201346 21 257 11.3 16.1 0.00 0.00 0.00 48 1011.0
20260509200845 22 284 6.4 14.5 0.00 0.00 0.00 48 1011.0
20260509200345 22 269 9.7 16.1 0.00 0.00 0.00 46 1010.8
20260509195845 22 285 8.0 12.9 0.00 0.00 0.00 47 1010.6
20260509195354 22 287 8.0 12.9 0.00 0.00 0.00 48 1010.5
20260509194844 22 245 4.8 14.5 0.00 0.00 0.00 47 1010.5
20260509194344 21 254 4.8 11.3 0.00 0.00 0.00 48 1010.4
20260509193843 21 257 9.7 14.5 0.00 0.00 0.00 48 1010.5
20260509193343 21 326 8.0 14.5 0.00 0.00 0.00 47 1010.8
20260509192843 21 203 8.0 12.9 0.00 0.00 0.00 47 1010.5
20260509192342 21 215 8.0 12.9 0.00 0.00 0.00 47 1010.6
20260509191842 21 266 8.0 11.3 0.00 0.00 0.00 46 1010.8
20260509191342 22 205 12.9 19.3 0.00 0.00 0.00 45 1010.4
20260509190842 22 220 9.7 17.7 0.00 0.00 0.00 44 1010.4
20260509190341 21 249 8.0 19.3 0.00 0.00 0.00 48 1010.5
20260509185841 21 231 9.7 14.5 0.00 0.00 0.00 46 1010.8
20260509185341 21 269 8.0 14.5 0.00 0.00 0.00 47 1010.5
20260509184841 21 304 4.8 9.7 0.00 0.00 0.00 48 1010.5
20260509184340 21 273 8.0 12.9 0.00 0.00 0.00 48 1010.7
20260509183840 21 273 9.7 16.1 0.00 0.00 0.00 47 1010.7
20260509183339 21 225 8.0 17.7 0.00 0.00 0.00 47 1011.0
20260509182839 21 215 12.9 22.5 0.00 0.00 0.00 47 1011.0
20260509182343 21 240 11.3 19.3 0.00 0.00 0.00 47 1010.7
20260509181838 21 288 6.4 11.3 0.00 0.00 0.00 47 1010.6
20260509181338 20 296 8.0 12.9 0.00 0.00 0.00 46 1010.6
20260509180838 20 212 6.4 9.7 0.00 0.00 0.00 49 1011.2
20260509180337 20 227 9.7 14.5 0.00 0.00 0.00 49 1011.2
20260509175837 20 220 8.0 14.5 0.00 0.00 0.00 50 1011.0
20260509175337 20 273 9.7 14.5 0.00 0.00 0.00 49 1011.4
20260509174836 21 260 6.4 9.7 0.00 0.00 0.00 50 1011.1
20260509174336 20 313 6.4 12.9 0.00 0.00 0.00 49 1011.1
20260509173840 20 277 11.3 17.7 0.00 0.00 0.00 48 1011.3
20260509173335 20 225 12.9 16.1 0.00 0.00 0.00 50 1011.5
20260509172852 20 261 9.7 14.5 0.00 0.00 0.00 49 1011.1
20260509172335 20 289 6.4 14.5 0.00 0.00 0.00 51 1011.3
20260509171834 20 277 6.4 11.3 0.00 0.00 0.00 52 1011.7
20260509171334 20 318 4.8 8.0 0.00 0.00 0.00 53 1011.6
20260509170834 20 332 3.2 9.7 0.00 0.00 0.00 53 1011.4
20260509170333 21 266 8.0 14.5 0.00 0.00 0.00 51 1011.3
20260509165833 20 251 9.7 12.9 0.00 0.00 0.00 47 1011.3
20260509165333 20 202 11.3 17.7 0.00 0.00 0.00 48 1011.3
20260509164835 19 271 9.7 14.5 0.00 0.00 0.00 50 1011.6
20260509164332 20 296 8.0 11.3 0.00 0.00 0.00 52 1011.6
20260509163832 20 244 6.4 9.7 0.00 0.00 0.00 51 1011.8
20260509163331 20 243 8.0 16.1 0.00 0.00 0.00 51 1011.7
20260509162831 19 239 12.9 27.4 0.00 0.00 0.00 53 1011.8